When you browse on this site, cookies collect data to enhance your experience and personalize the content and advertising you see.
Visit our Privacy Policy to learn more. By continuing to use the site, you agree to this use of cookies and data.
  • In United Kingdom
  • List of Countries
  • For 7 days
  • Water Temperature
  • Weather Map
  • Weather Widgets
  • user-avatar
    Login

    Hourly Weather Bonyhad

    Today, 22 September, Sunday

    Time Temperature Precipitation Wind Pressure Humidity
    00:00 +12°C° 0 mm 1 mps 753 mmHg 45%
    01:00 +11°C° 0 mm 1 mps 753 mmHg 45%
    02:00 +11°C° 0 mm 1 mps 753 mmHg 46%
    03:00 +9°C° 0 mm 2 mps 752 mmHg 48%
    04:00 +9°C° 0 mm 2 mps 752 mmHg 49%
    05:00 +10°C° 0 mm 2 mps 752 mmHg 48%
    06:00 +10°C° 0 mm 2 mps 752 mmHg 47%
    07:00 +12°C° 0 mm 2 mps 752 mmHg 42%
    08:00 +14°C° 0 mm 3 mps 752 mmHg 37%
    09:00 +17°C° 0 mm 3 mps 752 mmHg 32%
    10:00 +20°C° 0 mm 4 mps 751 mmHg 27%
    11:00 +21°C° 0 mm 4 mps 751 mmHg 25%
    12:00 +22°C° 0 mm 4 mps 750 mmHg 23%
    13:00 +24°C° 0 mm 3 mps 750 mmHg 22%
    14:00 +24°C° 0 mm 3 mps 749 mmHg 23%
    15:00 +24°C° 0 mm 3 mps 748 mmHg 25%
    16:00 +24°C° 0 mm 3 mps 748 mmHg 26%
    17:00 +21°C° 0 mm 2 mps 748 mmHg 29%
    18:00 +20°C° 0 mm 2 mps 748 mmHg 32%
    19:00 +19°C° 0 mm 1 mps 748 mmHg 35%
    20:00 +19°C° 0 mm 1 mps 748 mmHg 35%
    21:00 +19°C° 0 mm 1 mps 747 mmHg 36%
    22:00 +19°C° 0 mm 1 mps 747 mmHg 36%
    23:00 +19°C° 0 mm 1 mps 747 mmHg 42%

    Tomorrow, 23 September, Monday

    Time Temperature Precipitation Wind Pressure Humidity
    00:00 +19°C° 0 mm 1 mps 747 mmHg 48%
    01:00 +17°C° 0 mm 2 mps 747 mmHg 54%
    02:00 +17°C° 0 mm 2 mps 747 mmHg 54%
    03:00 +17°C° 0 mm 2 mps 747 mmHg 55%
    04:00 +17°C° 0 mm 3 mps 746 mmHg 55%
    05:00 +17°C° 0 mm 3 mps 746 mmHg 52%
    06:00 +17°C° 0 mm 3 mps 746 mmHg 49%
    07:00 +17°C° 0 mm 3 mps 746 mmHg 46%
    08:00 +17°C° 0 mm 3 mps 746 mmHg 50%
    09:00 +18°C° 0 mm 3 mps 747 mmHg 54%
    10:00 +18°C° 0 mm 3 mps 747 mmHg 59%
    11:00 +19°C° 0 mm 3 mps 747 mmHg 57%
    12:00 +19°C° 0 mm 3 mps 746 mmHg 56%
    13:00 +20°C° 0 mm 3 mps 746 mmHg 54%
    14:00 +20°C° 0 mm 4 mps 746 mmHg 54%
    15:00 +19°C° 0 mm 4 mps 746 mmHg 54%
    16:00 +19°C° 0 mm 5 mps 746 mmHg 54%
    17:00 +18°C° 0 mm 4 mps 746 mmHg 58%
    18:00 +15°C° 0 mm 4 mps 746 mmHg 63%
    19:00 +14°C° 0 mm 3 mps 746 mmHg 67%
    20:00 +14°C° 0 mm 3 mps 746 mmHg 68%
    21:00 +13°C° 0 mm 3 mps 746 mmHg 69%
    22:00 +13°C° 0 mm 3 mps 747 mmHg 70%
    23:00 +13°C° 0 mm 3 mps 747 mmHg 73%

    Day after tomorrow, 24 September, Tuesday

    Time Temperature Precipitation Wind Pressure Humidity
    00:00 +12°C° 0 mm 3 mps 747 mmHg 76%
    01:00 +12°C° 0 mm 3 mps 747 mmHg 79%
    02:00 +12°C° 0 mm 3 mps 747 mmHg 80%
    03:00 +11°C° 0 mm 3 mps 746 mmHg 80%
    04:00 +11°C° 0 mm 3 mps 746 mmHg 81%
    05:00 +13°C° 0 mm 2 mps 747 mmHg 80%
    06:00 +13°C° 0 mm 2 mps 747 mmHg 79%
    07:00 +14°C° 0 mm 2 mps 747 mmHg 78%
    08:00 +16°C° 0 mm 3 mps 747 mmHg 69%
    09:00 +18°C° 0 mm 3 mps 747 mmHg 60%
    10:00 +20°C° 0 mm 3 mps 747 mmHg 51%
    11:00 +20°C° 0 mm 3 mps 747 mmHg 49%
    12:00 +21°C° 0 mm 3 mps 747 mmHg 47%
    13:00 +21°C° 0 mm 2 mps 747 mmHg 45%
    14:00 +21°C° 0 mm 2 mps 747 mmHg 47%
    15:00 +21°C° 0 mm 2 mps 746 mmHg 48%
    16:00 +20°C° 0 mm 2 mps 746 mmHg 49%
    17:00 +19°C° 0 mm 2 mps 746 mmHg 55%
    18:00 +18°C° 0 mm 2 mps 746 mmHg 61%
    19:00 +16°C° 0 mm 3 mps 746 mmHg 67%
    20:00 +16°C° 0 mm 2 mps 746 mmHg 68%
    21:00 +16°C° 0 mm 2 mps 746 mmHg 69%
    22:00 +16°C° 0 mm 2 mps 746 mmHg 70%
    23:00 +16°C° 0 mm 1 mps 746 mmHg 72%

    25 September, Wednesday

    Time Temperature Precipitation Wind Pressure Humidity
    00:00 +16°C° 0 mm 1 mps 746 mmHg 75%
    01:00 +16°C° 0 mm 1 mps 746 mmHg 77%
    02:00 +15°C° 0 mm 1 mps 746 mmHg 80%
    03:00 +15°C° 0 mm 1 mps 746 mmHg 83%
    04:00 +14°C° 0 mm 1 mps 745 mmHg 87%
    05:00 +14°C° 0 mm 1 mps 745 mmHg 86%
    06:00 +14°C° 0 mm 1 mps 745 mmHg 85%
    07:00 +15°C° 0 mm 1 mps 746 mmHg 85%
    08:00 +16°C° 0 mm 1 mps 746 mmHg 77%
    09:00 +19°C° 0 mm 1 mps 746 mmHg 69%
    10:00 +21°C° 0 mm 1 mps 746 mmHg 62%
    11:00 +22°C° 0 mm 1 mps 746 mmHg 57%
    12:00 +23°C° 0 mm 1 mps 745 mmHg 53%
    13:00 +24°C° 0 mm 1 mps 745 mmHg 48%
    14:00 +23°C° 0 mm 1 mps 745 mmHg 49%
    15:00 +23°C° 0 mm 1 mps 744 mmHg 49%
    16:00 +23°C° 0 mm 1 mps 744 mmHg 50%
    17:00 +22°C° 0 mm 1 mps 744 mmHg 55%
    18:00 +20°C° 0 mm 1 mps 745 mmHg 61%
    19:00 +19°C° 0 mm 1 mps 745 mmHg 66%
    20:00 +18°C° 0 mm 1 mps 745 mmHg 70%
    21:00 +17°C° 0 mm 2 mps 745 mmHg 73%
    22:00 +17°C° 0 mm 2 mps 746 mmHg 77%
    23:00 +16°C° 0.1 mm 3 mps 746 mmHg 79%

    26 September, Thursday

    Time Temperature Precipitation Wind Pressure Humidity
    00:00 +16°C° 0.1 mm 3 mps 746 mmHg 80%
    01:00 +14°C° 0.1 mm 3 mps 746 mmHg 82%
    02:00 +14°C° 0.5 mm 3 mps 746 mmHg 83%
    03:00 +14°C° 0.5 mm 3 mps 746 mmHg 84%
    04:00 +13°C° 0.5 mm 3 mps 747 mmHg 84%
    05:00 +13°C° 1.2 mm 3 mps 747 mmHg 87%
    06:00 +14°C° 1.2 mm 2 mps 747 mmHg 89%
    07:00 +14°C° 1.2 mm 2 mps 748 mmHg 91%
    08:00 +15°C° 0.1 mm 2 mps 748 mmHg 84%
    09:00 +17°C° 0.1 mm 2 mps 749 mmHg 76%
    10:00 +18°C° 0.1 mm 3 mps 749 mmHg 68%
    11:00 +19°C° 0 mm 3 mps 749 mmHg 60%
    12:00 +21°C° 0 mm 4 mps 749 mmHg 52%
    13:00 +23°C° 0 mm 4 mps 749 mmHg 44%
    14:00 +22°C° 0 mm 4 mps 749 mmHg 43%
    15:00 +22°C° 0 mm 4 mps 749 mmHg 43%
    16:00 +22°C° 0 mm 3 mps 748 mmHg 43%
    17:00 +21°C° 0 mm 3 mps 749 mmHg 47%
    18:00 +19°C° 0 mm 2 mps 749 mmHg 51%
    19:00 +18°C° 0 mm 2 mps 749 mmHg 55%
    20:00 +17°C° 0 mm 2 mps 750 mmHg 58%
    21:00 +16°C° 0 mm 2 mps 750 mmHg 61%
    22:00 +16°C° 0 mm 2 mps 750 mmHg 64%
    23:00 +15°C° 0 mm 2 mps 750 mmHg 68%

    27 September, Friday

    Time Temperature Precipitation Wind Pressure Humidity
    00:00 +15°C° 0 mm 2 mps 750 mmHg 71%
    01:00 +14°C° 0 mm 2 mps 750 mmHg 75%
    02:00 +14°C° 0 mm 1 mps 751 mmHg 77%
    03:00 +14°C° 0 mm 1 mps 751 mmHg 79%
    04:00 +14°C° 0 mm 1 mps 751 mmHg 81%
    05:00 +14°C° 0 mm 1 mps 751 mmHg 79%
    06:00 +15°C° 0 mm 1 mps 751 mmHg 76%
    07:00 +16°C° 0 mm 1 mps 751 mmHg 74%
    08:00 +19°C° 0 mm 1 mps 751 mmHg 65%
    09:00 +20°C° 0 mm 2 mps 751 mmHg 57%
    10:00 +23°C° 0 mm 2 mps 751 mmHg 48%
    11:00 +24°C° 0 mm 2 mps 751 mmHg 45%
    12:00 +25°C° 0 mm 3 mps 750 mmHg 42%
    13:00 +26°C° 0 mm 3 mps 750 mmHg 39%
    14:00 +25°C° 0 mm 3 mps 750 mmHg 40%
    15:00 +25°C° 0 mm 3 mps 749 mmHg 40%
    16:00 +25°C° 0 mm 3 mps 749 mmHg 41%
    17:00 +23°C° 0 mm 2 mps 749 mmHg 45%
    18:00 +20°C° 0 mm 2 mps 749 mmHg 50%
    19:00 +19°C° 0 mm 2 mps 749 mmHg 55%
    20:00 +18°C° 0 mm 2 mps 749 mmHg 55%
    21:00 +18°C° 0 mm 2 mps 749 mmHg 55%
    22:00 +18°C° 0 mm 2 mps 749 mmHg 56%
    23:00 +17°C° 0 mm 2 mps 749 mmHg 58%
    Show more